Location: Hungerford
(51.4167°N, 1.5167°W)
Time: 19:54:43
(UTC+00:00)

ISS - Visible Passes

Search period start: 29 November 2020 00:00
Search period end: 09 December 2020 00:00
Orbit: 418 x 420 km, 51.6° (Epoch: 30 November)

Date Brightness Start Highest point End Pass type
(mag) Time Alt. Az. Time Alt. Az. Time Alt. Az.
29 Nov -3.9 18:00:21 10° W 18:03:43 84° N 18:04:13 62° ENE visible
30 Nov -3.8 17:12:48 10° W 17:16:11 87° N 17:18:35 18° E visible
30 Nov -1.9 18:49:38 10° W 18:51:32 31° W 18:51:32 31° W visible
01 Dec -3.9 18:02:05 10° W 18:05:28 87° S 18:05:55 65° ESE visible
02 Dec -3.8 17:14:31 10° W 17:17:53 86° N 17:20:20 17° E visible
02 Dec -1.8 18:51:21 10° W 18:53:18 29° W 18:53:18 29° W visible
03 Dec -3.4 18:03:46 10° W 18:07:05 60° SSW 18:07:47 47° SSE visible
04 Dec -3.6 17:16:11 10° W 17:19:32 75° SSW 17:22:22 14° ESE visible
04 Dec -1.5 18:53:13 10° W 18:55:20 23° SW 18:55:20 23° SW visible
05 Dec -2.3 18:05:29 10° W 18:08:34 34° SSW 18:10:03 22° SSE visible
06 Dec -2.7 17:17:48 10° W 17:21:03 46° SSW 17:24:17 10° SE visible
06 Dec -0.7 18:55:51 10° WSW 18:57:13 12° SW 18:57:56 11° SSW visible
07 Dec -1.0 18:07:30 10° W 18:09:50 18° SW 18:12:09 10° S visible
08 Dec -1.4 17:19:34 10° W 17:22:22 25° SSW 17:25:11 10° SSE visible
